DFALK BIKF-EGPC

Flight info

Callsign DFALK
Flight time 3h 39m
Altitude 20000
Route OSKUM3D OSKUM DCT NALAN/N0162F200 DCT BAMRA
Aircraft C208/L-SDFGR/C

Departure

Time 2026-04-29 07:06
Airport Keflavik International Airport (BIKF)

Arrival

Time 2026-04-29 10:45
Airport Wick John O'Groats Airport (EGPC)
Time Latitude Longitude Altitude Speed Heading
2026-04-29 06:49 63.98193 -22.58828 172 ft 0 kts
2026-04-29 07:04 63.98194 -22.58828 172 ft 1 kts
2026-04-29 07:04 63.98200 -22.58865 172 ft 2 kts 269°
2026-04-29 07:04 63.98204 -22.58974 173 ft 16 kts 279°
2026-04-29 07:05 63.98338 -22.59152 175 ft 25 kts 337°
2026-04-29 07:05 63.98461 -22.59268 174 ft 14 kts 339°
2026-04-29 07:05 63.98506 -22.59358 176 ft 0 kts 272°
2026-04-29 07:06 63.98498 -22.60158 181 ft 91 kts 272°
2026-04-29 07:06 63.98522 -22.61173 427 ft 96 kts 265°
2026-04-29 07:06 63.98512 -22.62664 900 ft 98 kts 259°
2026-04-29 07:06 63.98481 -22.64268 1267 ft 103 kts 259°
2026-04-29 07:07 63.98460 -22.65910 1661 ft 103 kts 259°
2026-04-29 07:07 63.98459 -22.67579 2011 ft 108 kts 261°
2026-04-29 07:07 63.98458 -22.69317 2319 ft 112 kts 261°
2026-04-29 07:07 63.98447 -22.71259 2454 ft 131 kts 262°
2026-04-29 07:08 63.98501 -22.73379 2733 ft 134 kts 266°
2026-04-29 07:08 63.98341 -22.75426 2942 ft 130 kts 241°
2026-04-29 07:08 63.97888 -22.77174 3220 ft 127 kts 229°
2026-04-29 07:08 63.97236 -22.78482 3475 ft 125 kts 213°
2026-04-29 07:09 63.96458 -22.79342 3720 ft 125 kts 198°
2026-04-29 07:09 63.95577 -22.79500 3969 ft 129 kts 185°
2026-04-29 07:09 63.94683 -22.79516 4204 ft 128 kts 187°
2026-04-29 07:09 63.93787 -22.79515 4463 ft 128 kts 185°
2026-04-29 07:10 63.92895 -22.79481 4710 ft 128 kts 184°
2026-04-29 07:10 63.92014 -22.79032 4975 ft 133 kts 167°
2026-04-29 07:10 63.91194 -22.77991 5235 ft 140 kts 152°
2026-04-29 07:10 63.90521 -22.76317 5476 ft 148 kts 135°
2026-04-29 07:11 63.90100 -22.74095 5716 ft 159 kts 115°
2026-04-29 07:11 63.89990 -22.71525 5961 ft 166 kts 104°
2026-04-29 07:11 63.89928 -22.68953 6208 ft 162 kts 105°
2026-04-29 07:11 63.89857 -22.66382 6452 ft 164 kts 105°
2026-04-29 07:12 63.89796 -22.63806 6710 ft 163 kts 104°
2026-04-29 07:12 63.89724 -22.61232 6959 ft 164 kts 105°
2026-04-29 07:12 63.89654 -22.58646 7209 ft 164 kts 105°
2026-04-29 07:12 63.89583 -22.56078 7460 ft 163 kts 104°
2026-04-29 07:13 63.89519 -22.53497 7712 ft 165 kts 104°
2026-04-29 07:13 63.89452 -22.50915 7960 ft 162 kts 105°
2026-04-29 07:13 63.89380 -22.48353 8210 ft 164 kts 105°
2026-04-29 07:13 63.89310 -22.45775 8459 ft 163 kts 105°
2026-04-29 07:14 63.89238 -22.43207 8714 ft 161 kts 105°
2026-04-29 07:14 63.89166 -22.40645 8961 ft 162 kts 105°
2026-04-29 07:14 63.89095 -22.38091 9209 ft 162 kts 106°
2026-04-29 07:14 63.89026 -22.35565 9456 ft 163 kts 106°
2026-04-29 07:15 63.88954 -22.32976 9709 ft 165 kts 107°
2026-04-29 07:15 63.88879 -22.30353 9959 ft 169 kts 108°
2026-04-29 07:15 63.88804 -22.27684 10204 ft 170 kts 108°
2026-04-29 07:15 63.88723 -22.24995 10455 ft 173 kts 108°
2026-04-29 07:16 63.88650 -22.22307 10705 ft 170 kts 110°
2026-04-29 07:16 63.88571 -22.19619 10951 ft 171 kts 111°
2026-04-29 07:16 63.88491 -22.16923 11200 ft 172 kts 113°
2026-04-29 07:16 63.88410 -22.14213 11453 ft 172 kts 114°
2026-04-29 07:17 63.88328 -22.11505 11693 ft 172 kts 114°
2026-04-29 07:17 63.88245 -22.08793 11951 ft 173 kts 115°
2026-04-29 07:17 63.88160 -22.06061 12200 ft 174 kts 116°
2026-04-29 07:17 63.88078 -22.03310 12453 ft 174 kts 117°
2026-04-29 07:18 63.87992 -22.00560 12700 ft 175 kts 117°
2026-04-29 07:18 63.87904 -21.97785 12956 ft 177 kts 117°
2026-04-29 07:18 63.87815 -21.95004 13202 ft 178 kts 117°
2026-04-29 07:18 63.87727 -21.92203 13453 ft 179 kts 117°
2026-04-29 07:19 63.87638 -21.89381 13705 ft 180 kts 117°
2026-04-29 07:19 63.87548 -21.86533 13959 ft 181 kts 117°
2026-04-29 07:19 63.87450 -21.83646 14212 ft 186 kts 117°
2026-04-29 07:19 63.87353 -21.80694 14461 ft 188 kts 117°
2026-04-29 07:20 63.87263 -21.77737 14708 ft 187 kts 117°
2026-04-29 07:20 63.87171 -21.74811 14956 ft 184 kts 118°
2026-04-29 07:20 63.87076 -21.71935 15205 ft 182 kts 119°
2026-04-29 07:20 63.86981 -21.69086 15453 ft 180 kts 120°
2026-04-29 07:21 63.86887 -21.66269 15705 ft 178 kts 120°
2026-04-29 07:21 63.86791 -21.63469 15955 ft 178 kts 120°
2026-04-29 07:21 63.86697 -21.60681 16205 ft 177 kts 121°
2026-04-29 07:21 63.86602 -21.57907 16454 ft 176 kts 122°
2026-04-29 07:22 63.86509 -21.55145 16703 ft 175 kts 122°
2026-04-29 07:22 63.86415 -21.52407 16951 ft 173 kts 122°
2026-04-29 07:22 63.86323 -21.49705 17200 ft 170 kts 123°
2026-04-29 07:22 63.86231 -21.47042 17449 ft 168 kts 124°
2026-04-29 07:23 63.86140 -21.44447 17696 ft 166 kts 125°
2026-04-29 07:23 63.86049 -21.41855 17947 ft 163 kts 126°
2026-04-29 07:23 63.85960 -21.39271 18204 ft 161 kts 127°
2026-04-29 07:23 63.85872 -21.36789 18441 ft 159 kts 128°
2026-04-29 07:24 63.85782 -21.34286 18694 ft 156 kts 129°
2026-04-29 07:24 63.85695 -21.31845 18942 ft 154 kts 129°
2026-04-29 07:24 63.85609 -21.29468 19188 ft 153 kts 130°
2026-04-29 07:24 63.85524 -21.27091 19437 ft 150 kts 131°
2026-04-29 07:25 63.85439 -21.24718 19690 ft 148 kts 132°
2026-04-29 07:25 63.85357 -21.22461 19917 ft 146 kts 133°
2026-04-29 07:25 63.85237 -21.20027 19921 ft 164 kts 129°
2026-04-29 07:25 63.85124 -21.17298 19922 ft 182 kts 125°
2026-04-29 07:26 63.85022 -21.14341 19926 ft 194 kts 122°
2026-04-29 07:26 63.84916 -21.11242 19927 ft 201 kts 121°
2026-04-29 07:26 63.84781 -21.08087 19928 ft 196 kts 128°
2026-04-29 07:26 63.84422 -21.05264 19922 ft 178 kts 142°
2026-04-29 07:27 63.83902 -21.02798 19925 ft 173 kts 147°
2026-04-29 07:27 63.83369 -21.00326 19925 ft 175 kts 146°
2026-04-29 07:27 63.82836 -20.97825 19925 ft 177 kts 146°
2026-04-29 07:27 63.82299 -20.95314 19926 ft 178 kts 146°
2026-04-29 07:28 63.81758 -20.92789 19924 ft 179 kts 145°
2026-04-29 07:28 63.81214 -20.90255 19926 ft 179 kts 146°
2026-04-29 07:28 63.80669 -20.87720 19926 ft 179 kts 146°
2026-04-29 07:28 63.80124 -20.85189 19926 ft 179 kts 146°
2026-04-29 07:29 63.79580 -20.82664 19925 ft 179 kts 146°
2026-04-29 07:29 63.79034 -20.80137 19926 ft 179 kts 146°
2026-04-29 07:29 63.78487 -20.77606 19926 ft 179 kts 146°
2026-04-29 07:29 63.77941 -20.75081 19926 ft 179 kts 146°
2026-04-29 07:30 63.77394 -20.72557 19925 ft 179 kts 146°
2026-04-29 07:30 63.76848 -20.70035 19925 ft 178 kts 146°
2026-04-29 07:30 63.76301 -20.67522 19926 ft 178 kts 146°
2026-04-29 07:31 63.75209 -20.62501 19927 ft 178 kts 146°
2026-04-29 07:31 63.74663 -20.59992 19927 ft 178 kts 146°
2026-04-29 07:31 63.74115 -20.57482 19926 ft 178 kts 146°
2026-04-29 07:31 63.73569 -20.54982 19925 ft 178 kts 147°
2026-04-29 07:32 63.73021 -20.52475 19926 ft 178 kts 146°
2026-04-29 07:32 63.72471 -20.49967 19925 ft 178 kts 147°
2026-04-29 07:32 63.71921 -20.47457 19926 ft 178 kts 147°
2026-04-29 07:32 63.71376 -20.44949 19923 ft 181 kts 144°
2026-04-29 07:33 63.70946 -20.42108 19917 ft 199 kts 134°
2026-04-29 07:33 63.70587 -20.39104 19918 ft 198 kts 134°
2026-04-29 07:33 63.70219 -20.36119 19918 ft 198 kts 134°
2026-04-29 07:33 63.69848 -20.33137 19919 ft 198 kts 134°
2026-04-29 07:34 63.69478 -20.30156 19919 ft 198 kts 135°
2026-04-29 07:34 63.69109 -20.27178 19919 ft 197 kts 135°
2026-04-29 07:34 63.68738 -20.24204 19919 ft 197 kts 135°
2026-04-29 07:34 63.68367 -20.21231 19919 ft 197 kts 135°
2026-04-29 07:35 63.67996 -20.18260 19920 ft 197 kts 135°
2026-04-29 07:35 63.67623 -20.15287 19920 ft 197 kts 135°
2026-04-29 07:35 63.67251 -20.12320 19919 ft 197 kts 135°
2026-04-29 07:35 63.66883 -20.09388 19920 ft 197 kts 135°
2026-04-29 07:36 63.66509 -20.06421 19921 ft 197 kts 135°
2026-04-29 07:36 63.66134 -20.03449 19920 ft 197 kts 135°
2026-04-29 07:36 63.65759 -20.00477 19921 ft 197 kts 135°
2026-04-29 07:36 63.65384 -19.97511 19920 ft 197 kts 135°
2026-04-29 07:37 63.65006 -19.94540 19920 ft 198 kts 135°
2026-04-29 07:37 63.64629 -19.91568 19920 ft 197 kts 135°
2026-04-29 07:37 63.64255 -19.88614 19916 ft 195 kts 135°
2026-04-29 07:37 63.63884 -19.85691 19918 ft 194 kts 135°
2026-04-29 07:38 63.63507 -19.82779 19918 ft 195 kts 135°
2026-04-29 07:38 63.63130 -19.79853 19921 ft 196 kts 135°
2026-04-29 07:38 63.62749 -19.76893 19923 ft 198 kts 135°
2026-04-29 07:38 63.62366 -19.73911 19921 ft 199 kts 135°
2026-04-29 07:39 63.61984 -19.70922 19923 ft 199 kts 135°
2026-04-29 07:39 63.61594 -19.67924 19927 ft 201 kts 135°
2026-04-29 07:39 63.61199 -19.64885 19925 ft 204 kts 134°
2026-04-29 07:39 63.60802 -19.61808 19926 ft 206 kts 134°
2026-04-29 07:40 63.60402 -19.58715 19925 ft 207 kts 134°
2026-04-29 07:40 63.60005 -19.55627 19910 ft 204 kts 134°
2026-04-29 07:40 63.59616 -19.52603 19921 ft 200 kts 135°
2026-04-29 07:40 63.59220 -19.49608 19921 ft 200 kts 135°
2026-04-29 07:41 63.58824 -19.46610 19923 ft 201 kts 135°
2026-04-29 07:41 63.58429 -19.43596 19922 ft 201 kts 135°
2026-04-29 07:41 63.58034 -19.40574 19921 ft 201 kts 135°
2026-04-29 07:41 63.57639 -19.37561 19922 ft 201 kts 134°
2026-04-29 07:42 63.57243 -19.34554 19917 ft 201 kts 134°
2026-04-29 07:42 63.56849 -19.31561 19924 ft 200 kts 134°
2026-04-29 07:42 63.56451 -19.28568 19923 ft 200 kts 134°
2026-04-29 07:42 63.56052 -19.25568 19923 ft 201 kts 134°
2026-04-29 07:43 63.55653 -19.22560 19922 ft 201 kts 134°
2026-04-29 07:43 63.55254 -19.19548 19924 ft 201 kts 135°
2026-04-29 07:43 63.54850 -19.16532 19924 ft 202 kts 134°
2026-04-29 07:43 63.54446 -19.13505 19922 ft 203 kts 134°
2026-04-29 07:44 63.54046 -19.10481 19916 ft 201 kts 134°
2026-04-29 07:44 63.53652 -19.07515 19924 ft 199 kts 135°
2026-04-29 07:44 63.53245 -19.04536 19914 ft 199 kts 134°
2026-04-29 07:44 63.52849 -19.01574 19913 ft 198 kts 135°
2026-04-29 07:45 63.52447 -18.98609 19921 ft 200 kts 135°
2026-04-29 07:45 63.52039 -18.95604 19924 ft 202 kts 134°
2026-04-29 07:45 63.51638 -18.92594 19914 ft 199 kts 135°
2026-04-29 07:45 63.51239 -18.89628 19919 ft 198 kts 135°
2026-04-29 07:46 63.50835 -18.86674 19917 ft 198 kts 135°
2026-04-29 07:46 63.50433 -18.83722 19918 ft 198 kts 135°
2026-04-29 07:46 63.50031 -18.80770 19919 ft 198 kts 135°
2026-04-29 07:46 63.49627 -18.77816 19918 ft 198 kts 135°
2026-04-29 07:47 63.49223 -18.74858 19917 ft 199 kts 135°
2026-04-29 07:47 63.48818 -18.71900 19918 ft 199 kts 135°
2026-04-29 07:47 63.48411 -18.68935 19919 ft 200 kts 135°
2026-04-29 07:47 63.48003 -18.65964 19919 ft 200 kts 135°
2026-04-29 07:48 63.47593 -18.62989 19919 ft 200 kts 135°
2026-04-29 07:48 63.47184 -18.60017 19919 ft 200 kts 135°
2026-04-29 07:48 63.46778 -18.57077 19919 ft 200 kts 135°
2026-04-29 07:48 63.46366 -18.54105 19919 ft 200 kts 135°
2026-04-29 07:49 63.45955 -18.51135 19919 ft 200 kts 135°
2026-04-29 07:49 63.45542 -18.48161 19919 ft 200 kts 135°
2026-04-29 07:49 63.45127 -18.45185 19919 ft 201 kts 135°
2026-04-29 07:49 63.44712 -18.42203 19919 ft 201 kts 135°
2026-04-29 07:50 63.44295 -18.39214 19920 ft 201 kts 135°
2026-04-29 07:50 63.43877 -18.36225 19920 ft 201 kts 135°
2026-04-29 07:50 63.43459 -18.33239 19919 ft 201 kts 135°
2026-04-29 07:50 63.43040 -18.30256 19920 ft 201 kts 135°
2026-04-29 07:51 63.42620 -18.27269 19919 ft 201 kts 135°
2026-04-29 07:51 63.42201 -18.24297 19920 ft 201 kts 135°
2026-04-29 07:51 63.41781 -18.21317 19919 ft 201 kts 135°
2026-04-29 07:51 63.41360 -18.18345 19920 ft 201 kts 135°
2026-04-29 07:52 63.40939 -18.15371 19920 ft 201 kts 135°
2026-04-29 07:52 63.40518 -18.12402 19920 ft 201 kts 135°
2026-04-29 07:52 63.40096 -18.09431 19921 ft 201 kts 135°
2026-04-29 07:52 63.39816 -18.07463 19921 ft 201 kts 135°
2026-04-29 07:53 63.39393 -18.04499 19926 ft 201 kts 135°
2026-04-29 07:53 63.38976 -18.01551 19981 ft 198 kts 136°
2026-04-29 07:53 63.38557 -17.98630 19983 ft 198 kts 136°
2026-04-29 07:53 63.38134 -17.95706 19983 ft 199 kts 136°
2026-04-29 07:54 63.37712 -17.92769 19983 ft 199 kts 136°
2026-04-29 07:54 63.37289 -17.89820 19983 ft 200 kts 136°
2026-04-29 07:54 63.36865 -17.86873 19984 ft 200 kts 136°
2026-04-29 07:54 63.36440 -17.83920 19983 ft 200 kts 136°
2026-04-29 07:55 63.36014 -17.80969 19984 ft 200 kts 135°
2026-04-29 07:55 63.35588 -17.78028 19995 ft 200 kts 135°
2026-04-29 07:55 63.35161 -17.75087 19995 ft 199 kts 135°
2026-04-29 07:55 63.34734 -17.72147 19994 ft 200 kts 135°
2026-04-29 07:56 63.34306 -17.69211 19994 ft 200 kts 135°
2026-04-29 07:56 63.33877 -17.66265 19995 ft 200 kts 135°
2026-04-29 07:56 63.33448 -17.63323 19995 ft 200 kts 135°
2026-04-29 07:56 63.33018 -17.60384 19995 ft 200 kts 135°
2026-04-29 07:57 63.32587 -17.57447 19995 ft 200 kts 135°
2026-04-29 07:57 63.32156 -17.54509 19995 ft 200 kts 135°
2026-04-29 07:57 63.31725 -17.51572 19995 ft 199 kts 135°
2026-04-29 07:57 63.31292 -17.48637 19996 ft 199 kts 135°
2026-04-29 07:58 63.30859 -17.45702 19996 ft 199 kts 135°
2026-04-29 07:58 63.30426 -17.42767 19996 ft 200 kts 135°
2026-04-29 07:58 63.29998 -17.39874 19996 ft 199 kts 135°
2026-04-29 07:58 63.29557 -17.36903 19996 ft 200 kts 135°
2026-04-29 07:59 63.29127 -17.34010 19996 ft 200 kts 135°
2026-04-29 07:59 63.28687 -17.31042 19996 ft 200 kts 135°
2026-04-29 07:59 63.28249 -17.28105 19996 ft 200 kts 135°
2026-04-29 07:59 63.27812 -17.25176 19996 ft 200 kts 135°
2026-04-29 08:00 63.27374 -17.22247 19996 ft 200 kts 135°
2026-04-29 08:00 63.26941 -17.19359 19996 ft 200 kts 135°
2026-04-29 08:00 63.26496 -17.16398 19997 ft 200 kts 135°
2026-04-29 08:00 63.26063 -17.13514 20006 ft 199 kts 135°
2026-04-29 08:01 63.25625 -17.10599 20004 ft 199 kts 135°
2026-04-29 08:01 63.25185 -17.07685 20004 ft 199 kts 135°
2026-04-29 08:01 63.24744 -17.04769 20004 ft 199 kts 135°
2026-04-29 08:01 63.24298 -17.01816 20005 ft 199 kts 135°
2026-04-29 08:02 63.23862 -16.98938 20005 ft 199 kts 135°
2026-04-29 08:02 63.23420 -16.96023 20005 ft 199 kts 135°
2026-04-29 08:02 63.22977 -16.93107 20005 ft 199 kts 135°
2026-04-29 08:02 63.22534 -16.90197 20005 ft 199 kts 135°
2026-04-29 08:03 63.22090 -16.87292 20005 ft 199 kts 135°
2026-04-29 08:03 63.21647 -16.84388 20005 ft 199 kts 135°
2026-04-29 08:03 63.21202 -16.81481 20005 ft 199 kts 135°
2026-04-29 08:03 63.20758 -16.78581 20005 ft 199 kts 135°
2026-04-29 08:04 63.20312 -16.75678 20003 ft 199 kts 135°
2026-04-29 08:04 63.19866 -16.72778 20003 ft 199 kts 135°
2026-04-29 08:04 63.19414 -16.69845 20004 ft 199 kts 135°
2026-04-29 08:04 63.18974 -16.66994 20001 ft 198 kts 135°
2026-04-29 08:05 63.18529 -16.64115 20006 ft 198 kts 135°
2026-04-29 08:05 63.18080 -16.61216 20003 ft 198 kts 135°
2026-04-29 08:05 63.17632 -16.58325 20004 ft 198 kts 135°
2026-04-29 08:05 63.17185 -16.55440 20004 ft 198 kts 135°
2026-04-29 08:06 63.16735 -16.52552 20006 ft 198 kts 135°
2026-04-29 08:06 63.16286 -16.49666 20006 ft 198 kts 135°
2026-04-29 08:06 63.15835 -16.46777 20003 ft 199 kts 135°
2026-04-29 08:06 63.15385 -16.43896 20005 ft 199 kts 135°
2026-04-29 08:07 63.14933 -16.41012 20007 ft 199 kts 135°
2026-04-29 08:07 63.14481 -16.38129 20005 ft 198 kts 135°
2026-04-29 08:07 63.14029 -16.35250 20005 ft 198 kts 135°
2026-04-29 08:07 63.13577 -16.32378 20014 ft 198 kts 135°
2026-04-29 08:08 63.13123 -16.29499 20011 ft 199 kts 135°
2026-04-29 08:08 63.12667 -16.26610 20011 ft 199 kts 135°
2026-04-29 08:08 63.12211 -16.23721 20014 ft 199 kts 135°
2026-04-29 08:08 63.11753 -16.20824 20014 ft 200 kts 135°
2026-04-29 08:09 63.11294 -16.17930 20015 ft 200 kts 135°
2026-04-29 08:09 63.10834 -16.15034 20015 ft 200 kts 135°
2026-04-29 08:09 63.10374 -16.12140 20011 ft 200 kts 135°
2026-04-29 08:09 63.09912 -16.09240 20013 ft 200 kts 135°
2026-04-29 08:10 63.09450 -16.06346 20014 ft 200 kts 135°
2026-04-29 08:10 63.08986 -16.03453 20016 ft 200 kts 135°
2026-04-29 08:10 63.08522 -16.00568 20011 ft 200 kts 135°
2026-04-29 08:10 63.08059 -15.97681 20011 ft 200 kts 135°
2026-04-29 08:11 63.07595 -15.94794 20009 ft 200 kts 135°
2026-04-29 08:11 63.07132 -15.91910 20014 ft 200 kts 135°
2026-04-29 08:11 63.06666 -15.89021 20013 ft 200 kts 135°
2026-04-29 08:11 63.06205 -15.86169 20013 ft 200 kts 135°
2026-04-29 08:12 63.05738 -15.83275 20011 ft 200 kts 135°
2026-04-29 08:12 63.05270 -15.80381 20014 ft 200 kts 135°
2026-04-29 08:12 63.04801 -15.77487 20014 ft 200 kts 135°
2026-04-29 08:12 63.04331 -15.74594 20009 ft 201 kts 135°
2026-04-29 08:13 63.03859 -15.71691 20014 ft 201 kts 135°
2026-04-29 08:13 63.03391 -15.68805 20011 ft 200 kts 135°
2026-04-29 08:13 63.02918 -15.65917 20011 ft 200 kts 135°
2026-04-29 08:13 63.02447 -15.63036 20013 ft 200 kts 135°
2026-04-29 08:14 63.01975 -15.60152 20013 ft 200 kts 135°
2026-04-29 08:14 63.01502 -15.57271 20011 ft 200 kts 135°
2026-04-29 08:14 63.01030 -15.54392 20011 ft 200 kts 135°
2026-04-29 08:14 63.00557 -15.51512 20012 ft 200 kts 135°
2026-04-29 08:15 63.00085 -15.48642 20019 ft 199 kts 135°
2026-04-29 08:15 62.99611 -15.45772 20024 ft 200 kts 135°
2026-04-29 08:15 62.99135 -15.42896 20024 ft 200 kts 135°
2026-04-29 08:15 62.98660 -15.40020 20024 ft 200 kts 135°
2026-04-29 08:16 62.98184 -15.37147 20017 ft 200 kts 135°
2026-04-29 08:16 62.97706 -15.34267 20021 ft 200 kts 135°
2026-04-29 08:16 62.97228 -15.31392 20022 ft 201 kts 135°
2026-04-29 08:16 62.96749 -15.28516 20024 ft 200 kts 135°
2026-04-29 08:17 62.96269 -15.25641 20017 ft 201 kts 134°
2026-04-29 08:17 62.95791 -15.22761 20021 ft 200 kts 134°
2026-04-29 08:17 62.95312 -15.19887 20022 ft 200 kts 134°
2026-04-29 08:17 62.94833 -15.17030 20022 ft 200 kts 134°
2026-04-29 08:18 62.94350 -15.14151 20021 ft 200 kts 134°
2026-04-29 08:18 62.93863 -15.11302 20018 ft 199 kts 135°
2026-04-29 08:18 62.93378 -15.08442 20022 ft 200 kts 135°
2026-04-29 08:18 62.92896 -15.05583 20016 ft 200 kts 135°
2026-04-29 08:19 62.92412 -15.02714 20019 ft 200 kts 135°
2026-04-29 08:19 62.91926 -14.99841 20017 ft 201 kts 135°
2026-04-29 08:19 62.91440 -14.96965 20013 ft 201 kts 135°
2026-04-29 08:19 62.90953 -14.94096 20015 ft 201 kts 135°
2026-04-29 08:20 62.90467 -14.91228 20013 ft 201 kts 135°
2026-04-29 08:20 62.89979 -14.88363 20015 ft 201 kts 135°
2026-04-29 08:20 62.89491 -14.85503 20013 ft 201 kts 135°
2026-04-29 08:20 62.89003 -14.82641 20013 ft 201 kts 135°
2026-04-29 08:21 62.88515 -14.79780 20021 ft 200 kts 135°
2026-04-29 08:21 62.88027 -14.76928 20021 ft 200 kts 135°
2026-04-29 08:21 62.87538 -14.74079 20019 ft 200 kts 135°
2026-04-29 08:21 62.87048 -14.71224 20020 ft 200 kts 135°
2026-04-29 08:22 62.86557 -14.68368 20023 ft 200 kts 135°
2026-04-29 08:22 62.86067 -14.65518 20022 ft 200 kts 135°
2026-04-29 08:22 62.85576 -14.62669 20023 ft 200 kts 135°
2026-04-29 08:22 62.85084 -14.59822 20021 ft 200 kts 135°
2026-04-29 08:23 62.84589 -14.56967 20019 ft 201 kts 135°
2026-04-29 08:23 62.84095 -14.54113 20020 ft 201 kts 135°
2026-04-29 08:23 62.83601 -14.51243 20021 ft 202 kts 134°
2026-04-29 08:23 62.83108 -14.48364 20019 ft 202 kts 134°
2026-04-29 08:24 62.82616 -14.45529 20021 ft 202 kts 134°
2026-04-29 08:24 62.82115 -14.42656 20020 ft 202 kts 134°
2026-04-29 08:24 62.81614 -14.39784 20022 ft 202 kts 134°
2026-04-29 08:24 62.81112 -14.36916 20021 ft 202 kts 134°
2026-04-29 08:25 62.80610 -14.34042 20048 ft 201 kts 134°
2026-04-29 08:25 62.80113 -14.31195 20073 ft 200 kts 134°
2026-04-29 08:25 62.79612 -14.28355 20076 ft 200 kts 134°
2026-04-29 08:25 62.79111 -14.25510 20076 ft 201 kts 134°
2026-04-29 08:26 62.78608 -14.22654 20075 ft 201 kts 134°
2026-04-29 08:26 62.78106 -14.19803 20085 ft 201 kts 134°
2026-04-29 08:26 62.77601 -14.16951 20087 ft 202 kts 134°
2026-04-29 08:26 62.77096 -14.14097 20087 ft 202 kts 134°
2026-04-29 08:27 62.76590 -14.11237 20088 ft 202 kts 134°
2026-04-29 08:27 62.76082 -14.08371 20088 ft 202 kts 134°
2026-04-29 08:27 62.75575 -14.05517 20088 ft 202 kts 134°
2026-04-29 08:27 62.75066 -14.02658 20088 ft 202 kts 134°
2026-04-29 08:28 62.74556 -13.99800 20088 ft 202 kts 134°
2026-04-29 08:28 62.74047 -13.96941 20088 ft 202 kts 133°
2026-04-29 08:28 62.73536 -13.94083 20097 ft 202 kts 134°
2026-04-29 08:28 62.73025 -13.91228 20097 ft 202 kts 133°
2026-04-29 08:29 62.72513 -13.88372 20097 ft 202 kts 133°
2026-04-29 08:29 62.72001 -13.85518 20097 ft 203 kts 133°
2026-04-29 08:29 62.71486 -13.82657 20097 ft 203 kts 133°
2026-04-29 08:29 62.70972 -13.79799 20097 ft 203 kts 133°
2026-04-29 08:30 62.70456 -13.76940 20098 ft 203 kts 133°
2026-04-29 08:30 62.69431 -13.71270 20103 ft 202 kts 133°
2026-04-29 08:30 62.68915 -13.68418 20108 ft 202 kts 133°
2026-04-29 08:31 62.68399 -13.65572 20108 ft 202 kts 133°
2026-04-29 08:31 62.67879 -13.62717 20103 ft 203 kts 133°
2026-04-29 08:31 62.67359 -13.59857 20101 ft 203 kts 133°
2026-04-29 08:31 62.66837 -13.56993 20102 ft 204 kts 133°
2026-04-29 08:32 62.66314 -13.54124 20104 ft 204 kts 133°
2026-04-29 08:32 62.65790 -13.51255 20108 ft 204 kts 133°
2026-04-29 08:32 62.65268 -13.48398 20110 ft 204 kts 133°
2026-04-29 08:32 62.64744 -13.45538 20113 ft 204 kts 133°
2026-04-29 08:33 62.64218 -13.42674 20116 ft 204 kts 133°
2026-04-29 08:33 62.63693 -13.39818 20111 ft 204 kts 133°
2026-04-29 08:33 62.63167 -13.36959 20108 ft 204 kts 133°
2026-04-29 08:33 62.62640 -13.34102 20116 ft 204 kts 133°
2026-04-29 08:34 62.62113 -13.31248 20120 ft 203 kts 133°
2026-04-29 08:34 62.61588 -13.28403 20126 ft 203 kts 133°
2026-04-29 08:34 62.61061 -13.25561 20123 ft 203 kts 133°
2026-04-29 08:34 62.60534 -13.22719 20118 ft 203 kts 133°
2026-04-29 08:35 62.60012 -13.19907 20123 ft 203 kts 133°
2026-04-29 08:35 62.59477 -13.17027 20121 ft 203 kts 133°
2026-04-29 08:35 62.58940 -13.14196 20127 ft 202 kts 135°
2026-04-29 08:35 62.58406 -13.11372 20137 ft 202 kts 134°
2026-04-29 08:36 62.57877 -13.08541 20134 ft 202 kts 134°
2026-04-29 08:36 62.57357 -13.05751 20132 ft 202 kts 134°
2026-04-29 08:36 62.56829 -13.02931 20133 ft 201 kts 134°
2026-04-29 08:36 62.56301 -13.00116 20131 ft 202 kts 134°
2026-04-29 08:37 62.55773 -12.97306 20137 ft 201 kts 134°
2026-04-29 08:37 62.55246 -12.94502 20140 ft 201 kts 134°
2026-04-29 08:37 62.54716 -12.91697 20139 ft 202 kts 134°
2026-04-29 08:37 62.54185 -12.88882 20138 ft 202 kts 133°
2026-04-29 08:38 62.53653 -12.86068 20140 ft 202 kts 133°
2026-04-29 08:38 62.53121 -12.83254 20139 ft 202 kts 133°
2026-04-29 08:38 62.52587 -12.80432 20145 ft 202 kts 134°
2026-04-29 08:38 62.52055 -12.77624 20151 ft 201 kts 133°
2026-04-29 08:39 62.51521 -12.74817 20150 ft 202 kts 133°
2026-04-29 08:39 62.50986 -12.72009 20148 ft 202 kts 133°
2026-04-29 08:39 62.50451 -12.69197 20149 ft 202 kts 133°
2026-04-29 08:39 62.49915 -12.66387 20150 ft 202 kts 133°
2026-04-29 08:40 62.49379 -12.63579 20153 ft 201 kts 133°
2026-04-29 08:40 62.48844 -12.60782 20158 ft 201 kts 133°
2026-04-29 08:40 62.48307 -12.57980 20157 ft 202 kts 133°
2026-04-29 08:40 62.47767 -12.55172 20157 ft 203 kts 133°
2026-04-29 08:41 62.47227 -12.52360 20156 ft 203 kts 133°
2026-04-29 08:41 62.46687 -12.49547 20158 ft 203 kts 132°
2026-04-29 08:41 62.46147 -12.46742 20170 ft 202 kts 132°
2026-04-29 08:41 62.45789 -12.44885 20167 ft 202 kts 133°
2026-04-29 08:42 62.45246 -12.42079 20166 ft 202 kts 133°
2026-04-29 08:42 62.44704 -12.39276 20167 ft 202 kts 132°
2026-04-29 08:42 62.44162 -12.36474 20166 ft 202 kts 132°
2026-04-29 08:42 62.43620 -12.33677 20168 ft 203 kts 132°
2026-04-29 08:43 62.43075 -12.30877 20179 ft 202 kts 132°
2026-04-29 08:43 62.42531 -12.28079 20177 ft 202 kts 132°
2026-04-29 08:43 62.41985 -12.25279 20175 ft 202 kts 132°
2026-04-29 08:43 62.41441 -12.22485 20177 ft 202 kts 132°
2026-04-29 08:44 62.40896 -12.19692 20176 ft 202 kts 132°
2026-04-29 08:44 62.40350 -12.16901 20180 ft 202 kts 132°
2026-04-29 08:44 62.39804 -12.14112 20188 ft 202 kts 132°
2026-04-29 08:44 62.39257 -12.11326 20187 ft 202 kts 132°
2026-04-29 08:45 62.38709 -12.08537 20185 ft 202 kts 132°
2026-04-29 08:45 62.38162 -12.05749 20183 ft 202 kts 132°
2026-04-29 08:45 62.37614 -12.02964 20188 ft 202 kts 132°
2026-04-29 08:45 62.37064 -12.00177 20186 ft 202 kts 132°
2026-04-29 08:46 62.36514 -11.97394 20184 ft 202 kts 132°
2026-04-29 08:46 62.35965 -11.94615 20186 ft 202 kts 132°
2026-04-29 08:46 62.35414 -11.91836 20185 ft 202 kts 132°
2026-04-29 08:46 62.34863 -11.89060 20184 ft 202 kts 132°
2026-04-29 08:47 62.34314 -11.86291 20196 ft 201 kts 132°
2026-04-29 08:47 62.33764 -11.83527 20193 ft 201 kts 132°
2026-04-29 08:47 62.33212 -11.80759 20196 ft 201 kts 132°
2026-04-29 08:47 62.32661 -11.77993 20194 ft 201 kts 132°
2026-04-29 08:48 62.32109 -11.75226 20196 ft 201 kts 132°
2026-04-29 08:48 62.31557 -11.72466 20206 ft 201 kts 132°
2026-04-29 08:48 62.31005 -11.69710 20204 ft 201 kts 132°
2026-04-29 08:48 62.30449 -11.66939 20208 ft 202 kts 132°
2026-04-29 08:49 62.29893 -11.64166 20204 ft 202 kts 132°
2026-04-29 08:49 62.29336 -11.61390 20203 ft 202 kts 132°
2026-04-29 08:49 62.28778 -11.58618 20214 ft 202 kts 132°
2026-04-29 08:49 62.28220 -11.55853 20213 ft 202 kts 132°
2026-04-29 08:50 62.27661 -11.53081 20212 ft 203 kts 132°
2026-04-29 08:50 62.27101 -11.50308 20213 ft 202 kts 132°
2026-04-29 08:50 62.26540 -11.47540 20213 ft 203 kts 132°
2026-04-29 08:50 62.25986 -11.44804 20212 ft 203 kts 132°
2026-04-29 08:51 62.25418 -11.42001 20225 ft 202 kts 132°
2026-04-29 08:51 62.24856 -11.39239 20224 ft 202 kts 132°
2026-04-29 08:51 62.24301 -11.36511 20222 ft 202 kts 132°
2026-04-29 08:51 62.23737 -11.33744 20221 ft 202 kts 132°
2026-04-29 08:52 62.23174 -11.30983 20223 ft 202 kts 133°
2026-04-29 08:52 62.22612 -11.28224 20232 ft 202 kts 133°
2026-04-29 08:52 62.22048 -11.25470 20231 ft 202 kts 133°
2026-04-29 08:52 62.21482 -11.22710 20231 ft 203 kts 132°
2026-04-29 08:53 62.20908 -11.19912 20232 ft 203 kts 132°
2026-04-29 08:53 62.20349 -11.17191 20230 ft 203 kts 132°
2026-04-29 08:53 62.19782 -11.14434 20233 ft 202 kts 132°
2026-04-29 08:53 62.19213 -11.11671 20242 ft 202 kts 132°
2026-04-29 08:54 62.18645 -11.08916 20243 ft 202 kts 132°
2026-04-29 08:54 62.18076 -11.06161 20243 ft 202 kts 132°
2026-04-29 08:54 62.17506 -11.03401 20240 ft 202 kts 132°
2026-04-29 08:54 62.16938 -11.00656 20248 ft 202 kts 132°
2026-04-29 08:55 62.16372 -10.97922 20258 ft 200 kts 132°
2026-04-29 08:55 62.15809 -10.95207 20258 ft 199 kts 132°
2026-04-29 08:55 62.15245 -10.92498 20257 ft 199 kts 132°
2026-04-29 08:55 62.14674 -10.89754 20259 ft 199 kts 132°
2026-04-29 08:56 62.14119 -10.87094 20259 ft 199 kts 131°
2026-04-29 08:56 62.13556 -10.84397 20257 ft 199 kts 131°
2026-04-29 08:56 62.12997 -10.81698 20258 ft 199 kts 130°
2026-04-29 08:56 62.12443 -10.78990 20272 ft 199 kts 130°
2026-04-29 08:57 62.11880 -10.76294 20272 ft 199 kts 131°
2026-04-29 08:57 62.11312 -10.73599 20272 ft 199 kts 131°
2026-04-29 08:57 62.10746 -10.70907 20272 ft 199 kts 131°
2026-04-29 08:57 62.10180 -10.68208 20279 ft 199 kts 130°
2026-04-29 08:58 62.09613 -10.65515 20280 ft 199 kts 131°
2026-04-29 08:58 62.09045 -10.62824 20281 ft 199 kts 130°
2026-04-29 08:58 62.08476 -10.60130 20281 ft 199 kts 130°
2026-04-29 08:58 62.07906 -10.57432 20281 ft 200 kts 130°
2026-04-29 08:59 62.07336 -10.54740 20280 ft 200 kts 130°
2026-04-29 08:59 62.06764 -10.52044 20288 ft 199 kts 130°
2026-04-29 08:59 62.06195 -10.49360 20290 ft 198 kts 130°
2026-04-29 08:59 62.05627 -10.46689 20291 ft 198 kts 131°
2026-04-29 09:00 62.05059 -10.44017 20296 ft 197 kts 130°
2026-04-29 09:00 62.04493 -10.41360 20290 ft 197 kts 130°
2026-04-29 09:00 62.03926 -10.38700 20293 ft 197 kts 130°
2026-04-29 09:00 62.03357 -10.36040 20295 ft 197 kts 130°
2026-04-29 09:01 62.02790 -10.33387 20290 ft 197 kts 130°
2026-04-29 09:01 62.02221 -10.30733 20293 ft 197 kts 130°
2026-04-29 09:01 62.01653 -10.28080 20303 ft 197 kts 130°
2026-04-29 09:01 62.01085 -10.25437 20301 ft 196 kts 130°
2026-04-29 09:02 62.00517 -10.22791 20296 ft 196 kts 130°
2026-04-29 09:02 61.99947 -10.20143 20296 ft 196 kts 130°
2026-04-29 09:02 61.99378 -10.17502 20303 ft 196 kts 130°
2026-04-29 09:02 61.98809 -10.14866 20296 ft 196 kts 130°
2026-04-29 09:03 61.98239 -10.12230 20301 ft 196 kts 130°
2026-04-29 09:03 61.97678 -10.09636 20296 ft 196 kts 130°
2026-04-29 09:03 61.97106 -10.06997 20300 ft 196 kts 130°
2026-04-29 09:03 61.96536 -10.04367 20296 ft 196 kts 130°
2026-04-29 09:04 61.95968 -10.01746 20306 ft 195 kts 130°
2026-04-29 09:04 61.95397 -9.99119 20309 ft 195 kts 130°
2026-04-29 09:04 61.94826 -9.96498 20311 ft 196 kts 130°
2026-04-29 09:04 61.94254 -9.93874 20306 ft 196 kts 130°
2026-04-29 09:05 61.93681 -9.91250 20307 ft 196 kts 130°
2026-04-29 09:05 61.93107 -9.88623 20309 ft 196 kts 130°
2026-04-29 09:05 61.92533 -9.85999 20307 ft 196 kts 130°
2026-04-29 09:05 61.91958 -9.83374 20307 ft 196 kts 130°
2026-04-29 09:06 61.91384 -9.80752 20309 ft 196 kts 130°
2026-04-29 09:06 61.90807 -9.78130 20312 ft 196 kts 130°
2026-04-29 09:06 61.90231 -9.75505 20313 ft 196 kts 130°
2026-04-29 09:06 61.89654 -9.72882 20314 ft 196 kts 130°
2026-04-29 09:07 61.89078 -9.70268 20318 ft 196 kts 130°
2026-04-29 09:07 61.88502 -9.67660 20319 ft 196 kts 130°
2026-04-29 09:07 61.87925 -9.65051 20315 ft 196 kts 130°
2026-04-29 09:07 61.87348 -9.62442 20318 ft 196 kts 130°
2026-04-29 09:08 61.86769 -9.59831 20316 ft 196 kts 130°
2026-04-29 09:08 61.86191 -9.57219 20316 ft 196 kts 130°
2026-04-29 09:08 61.85612 -9.54611 20319 ft 196 kts 130°
2026-04-29 09:08 61.85032 -9.52002 20319 ft 196 kts 129°
2026-04-29 09:09 61.84453 -9.49401 20327 ft 195 kts 129°
2026-04-29 09:09 61.83875 -9.46806 20326 ft 195 kts 129°
2026-04-29 09:09 61.83295 -9.44209 20326 ft 195 kts 129°
2026-04-29 09:09 61.82715 -9.41615 20326 ft 195 kts 129°
2026-04-29 09:10 61.82136 -9.39024 20326 ft 195 kts 129°
2026-04-29 09:10 61.81556 -9.36431 20326 ft 195 kts 129°
2026-04-29 09:10 61.80973 -9.33835 20326 ft 195 kts 129°
2026-04-29 09:10 61.80391 -9.31240 20326 ft 195 kts 129°
2026-04-29 09:11 61.79808 -9.28646 20326 ft 195 kts 129°
2026-04-29 09:11 61.79232 -9.26084 20326 ft 196 kts 129°
2026-04-29 09:11 61.78640 -9.23458 20326 ft 195 kts 129°
2026-04-29 09:11 61.78064 -9.20903 20327 ft 195 kts 129°
2026-04-29 09:12 61.77472 -9.18282 20327 ft 195 kts 129°
2026-04-29 09:12 61.76894 -9.15727 20327 ft 195 kts 129°
2026-04-29 09:12 61.76301 -9.13106 20327 ft 195 kts 129°
2026-04-29 09:12 61.75715 -9.10520 20327 ft 195 kts 129°
2026-04-29 09:13 61.75127 -9.07931 20327 ft 195 kts 129°
2026-04-29 09:13 61.74540 -9.05348 20327 ft 195 kts 129°
2026-04-29 09:13 61.73952 -9.02760 20327 ft 196 kts 128°
2026-04-29 09:13 61.73363 -9.00177 20328 ft 195 kts 128°
2026-04-29 09:14 61.72782 -8.97631 20328 ft 195 kts 128°
2026-04-29 09:14 61.72186 -8.95018 20336 ft 195 kts 128°
2026-04-29 09:14 61.71598 -8.92447 20335 ft 195 kts 128°
2026-04-29 09:14 61.71008 -8.89869 20335 ft 195 kts 128°
2026-04-29 09:15 61.70424 -8.87320 20336 ft 195 kts 128°
2026-04-29 09:15 61.69833 -8.84743 20336 ft 195 kts 128°
2026-04-29 09:15 61.69241 -8.82169 20336 ft 195 kts 128°
2026-04-29 09:15 61.68648 -8.79588 20336 ft 196 kts 128°
2026-04-29 09:16 61.68054 -8.77008 20336 ft 196 kts 128°
2026-04-29 09:16 61.67460 -8.74429 20336 ft 196 kts 128°
2026-04-29 09:16 61.66864 -8.71848 20336 ft 196 kts 128°
2026-04-29 09:16 61.66267 -8.69266 20337 ft 196 kts 128°
2026-04-29 09:17 61.65670 -8.66683 20337 ft 196 kts 128°
2026-04-29 09:17 61.65072 -8.64104 20337 ft 196 kts 128°
2026-04-29 09:17 61.64475 -8.61528 20337 ft 196 kts 128°
2026-04-29 09:17 61.63878 -8.58955 20336 ft 196 kts 128°
2026-04-29 09:18 61.63279 -8.56382 20336 ft 196 kts 128°
2026-04-29 09:18 61.62681 -8.53810 20337 ft 196 kts 128°
2026-04-29 09:18 61.62082 -8.51238 20337 ft 196 kts 128°
2026-04-29 09:18 61.61482 -8.48668 20337 ft 196 kts 128°
2026-04-29 09:19 61.60880 -8.46093 20337 ft 196 kts 128°
2026-04-29 09:19 61.60280 -8.43524 20338 ft 196 kts 128°
2026-04-29 09:19 61.59678 -8.40951 20338 ft 196 kts 128°
2026-04-29 09:19 61.59075 -8.38382 20339 ft 196 kts 128°
2026-04-29 09:20 61.58471 -8.35809 20338 ft 197 kts 128°
2026-04-29 09:20 61.57866 -8.33235 20338 ft 197 kts 128°
2026-04-29 09:20 61.57260 -8.30658 20338 ft 197 kts 128°
2026-04-29 09:20 61.56652 -8.28080 20339 ft 197 kts 128°
2026-04-29 09:21 61.56044 -8.25501 20339 ft 197 kts 128°
2026-04-29 09:21 61.55435 -8.22923 20340 ft 197 kts 128°
2026-04-29 09:21 61.54827 -8.20347 20340 ft 197 kts 128°
2026-04-29 09:21 61.54217 -8.17766 20339 ft 197 kts 128°
2026-04-29 09:22 61.53608 -8.15196 20339 ft 197 kts 128°
2026-04-29 09:22 61.52997 -8.12620 20339 ft 197 kts 128°
2026-04-29 09:22 61.52388 -8.10057 20339 ft 197 kts 128°
2026-04-29 09:22 61.51784 -8.07519 20340 ft 197 kts 128°
2026-04-29 09:23 61.51172 -8.04952 20339 ft 197 kts 128°
2026-04-29 09:23 61.50561 -8.02382 20340 ft 197 kts 128°
2026-04-29 09:23 61.49949 -7.99816 20340 ft 197 kts 128°
2026-04-29 09:23 61.49336 -7.97253 20340 ft 197 kts 128°
2026-04-29 09:24 61.48722 -7.94686 20340 ft 197 kts 128°
2026-04-29 09:24 61.48107 -7.92117 20341 ft 197 kts 128°
2026-04-29 09:24 61.47492 -7.89551 20340 ft 197 kts 128°
2026-04-29 09:24 61.46876 -7.86987 20340 ft 197 kts 128°
2026-04-29 09:25 61.46261 -7.84428 20340 ft 197 kts 128°
2026-04-29 09:25 61.45646 -7.81869 20341 ft 197 kts 128°
2026-04-29 09:25 61.45030 -7.79313 20341 ft 197 kts 128°
2026-04-29 09:25 61.44415 -7.76761 20341 ft 197 kts 128°
2026-04-29 09:26 61.43799 -7.74210 20341 ft 196 kts 128°
2026-04-29 09:26 61.43182 -7.71660 20341 ft 196 kts 128°
2026-04-29 09:26 61.42566 -7.69115 20341 ft 196 kts 128°
2026-04-29 09:26 61.41950 -7.66569 20341 ft 196 kts 128°
2026-04-29 09:27 61.41334 -7.64031 20341 ft 196 kts 128°
2026-04-29 09:27 61.40717 -7.61489 20341 ft 196 kts 127°
2026-04-29 09:27 61.40099 -7.58952 20342 ft 196 kts 127°
2026-04-29 09:27 61.39481 -7.56412 20341 ft 196 kts 127°
2026-04-29 09:28 61.38865 -7.53884 20341 ft 196 kts 127°
2026-04-29 09:28 61.38247 -7.51350 20342 ft 195 kts 127°
2026-04-29 09:28 61.37631 -7.48825 20342 ft 195 kts 128°
2026-04-29 09:28 61.37222 -7.47156 20342 ft 196 kts 127°
2026-04-29 09:29 61.36602 -7.44626 20341 ft 196 kts 127°
2026-04-29 09:29 61.35365 -7.39574 20341 ft 196 kts 127°
2026-04-29 09:29 61.34745 -7.37050 20341 ft 195 kts 127°
2026-04-29 09:30 61.34125 -7.34531 20340 ft 195 kts 127°
2026-04-29 09:30 61.33303 -7.31193 20341 ft 196 kts 127°
2026-04-29 09:30 61.32884 -7.29489 20343 ft 196 kts 127°
2026-04-29 09:30 61.32262 -7.26969 20343 ft 196 kts 127°
2026-04-29 09:31 61.31640 -7.24450 20347 ft 195 kts 127°
2026-04-29 09:31 61.31021 -7.21944 20353 ft 195 kts 127°
2026-04-29 09:31 61.30400 -7.19437 20354 ft 195 kts 127°
2026-04-29 09:31 61.29778 -7.16929 20354 ft 195 kts 127°
2026-04-29 09:32 61.29164 -7.14456 20354 ft 195 kts 127°
2026-04-29 09:32 61.28533 -7.11914 20354 ft 195 kts 127°
2026-04-29 09:32 61.27910 -7.09408 20354 ft 195 kts 127°
2026-04-29 09:32 61.27285 -7.06903 20354 ft 195 kts 127°
2026-04-29 09:33 61.26669 -7.04431 20354 ft 195 kts 127°
2026-04-29 09:33 61.26036 -7.01892 20354 ft 195 kts 127°
2026-04-29 09:33 61.25410 -6.99387 20355 ft 195 kts 127°
2026-04-29 09:33 61.24793 -6.96917 20355 ft 195 kts 127°
2026-04-29 09:34 61.24159 -6.94382 20364 ft 195 kts 127°
2026-04-29 09:34 61.23532 -6.91882 20364 ft 195 kts 127°
2026-04-29 09:34 61.22911 -6.89410 20364 ft 196 kts 126°
2026-04-29 09:34 61.22281 -6.86907 20362 ft 196 kts 126°
2026-04-29 09:35 61.21652 -6.84405 20364 ft 196 kts 126°
2026-04-29 09:35 61.21021 -6.81900 20360 ft 196 kts 126°
2026-04-29 09:35 61.20389 -6.79393 20365 ft 196 kts 127°
2026-04-29 09:35 61.19756 -6.76880 20366 ft 197 kts 127°
2026-04-29 09:36 61.19121 -6.74370 20365 ft 197 kts 127°
2026-04-29 09:36 61.18485 -6.71856 20365 ft 196 kts 127°
2026-04-29 09:36 61.17851 -6.69351 20364 ft 196 kts 127°
2026-04-29 09:36 61.17218 -6.66851 20364 ft 196 kts 127°
2026-04-29 09:37 61.16584 -6.64356 20364 ft 196 kts 127°
2026-04-29 09:37 61.15951 -6.61865 20364 ft 196 kts 127°
2026-04-29 09:37 61.15317 -6.59375 20365 ft 195 kts 127°
2026-04-29 09:37 61.14684 -6.56888 20365 ft 195 kts 127°
2026-04-29 09:38 61.14051 -6.54407 20364 ft 195 kts 127°
2026-04-29 09:38 61.13419 -6.51928 20365 ft 195 kts 127°
2026-04-29 09:38 61.12785 -6.49446 20365 ft 195 kts 127°
2026-04-29 09:38 61.12151 -6.46967 20365 ft 195 kts 126°
2026-04-29 09:39 61.11516 -6.44489 20365 ft 195 kts 126°
2026-04-29 09:39 61.10880 -6.42012 20362 ft 195 kts 126°
2026-04-29 09:39 61.10246 -6.39538 20365 ft 195 kts 127°
2026-04-29 09:39 61.09610 -6.37061 20371 ft 195 kts 127°
2026-04-29 09:40 61.08974 -6.34589 20368 ft 195 kts 127°
2026-04-29 09:40 61.08337 -6.32117 20374 ft 195 kts 126°
2026-04-29 09:40 61.07707 -6.29677 20374 ft 195 kts 126°
2026-04-29 09:40 61.07062 -6.27175 20371 ft 195 kts 126°
2026-04-29 09:41 61.06431 -6.24734 20374 ft 195 kts 126°
2026-04-29 09:41 61.05792 -6.22265 20374 ft 195 kts 126°
2026-04-29 09:41 61.05153 -6.19798 20375 ft 195 kts 127°
2026-04-29 09:41 61.04515 -6.17334 20381 ft 194 kts 127°
2026-04-29 09:42 61.03877 -6.14876 20384 ft 194 kts 127°
2026-04-29 09:42 61.03238 -6.12417 20383 ft 195 kts 127°
2026-04-29 09:42 61.02599 -6.09958 20375 ft 195 kts 126°
2026-04-29 09:42 61.01959 -6.07499 20378 ft 194 kts 126°
2026-04-29 09:43 61.01319 -6.05044 20384 ft 194 kts 126°
2026-04-29 09:43 61.00678 -6.02593 20377 ft 195 kts 126°
2026-04-29 09:43 60.99964 -6.00263 20385 ft 188 kts 140°
2026-04-29 09:43 60.98988 -5.98586 20395 ft 180 kts 156°
2026-04-29 09:44 60.97944 -5.97159 20395 ft 181 kts 155°
2026-04-29 09:44 60.96896 -5.95708 20395 ft 181 kts 155°
2026-04-29 09:44 60.95849 -5.94258 20396 ft 182 kts 155°
2026-04-29 09:44 60.94795 -5.92804 20396 ft 182 kts 155°
2026-04-29 09:45 60.93743 -5.91352 20396 ft 183 kts 155°
2026-04-29 09:45 60.92689 -5.89898 20397 ft 183 kts 155°
2026-04-29 09:45 60.91632 -5.88445 20398 ft 183 kts 154°
2026-04-29 09:45 60.90573 -5.86990 20398 ft 183 kts 154°
2026-04-29 09:46 60.89515 -5.85535 20398 ft 183 kts 155°
2026-04-29 09:46 60.88454 -5.84079 20398 ft 184 kts 154°
2026-04-29 09:46 60.87394 -5.82623 20397 ft 183 kts 155°
2026-04-29 09:46 60.86334 -5.81169 20398 ft 183 kts 154°
2026-04-29 09:47 60.85274 -5.79717 20397 ft 183 kts 154°
2026-04-29 09:47 60.84215 -5.78266 20398 ft 183 kts 154°
2026-04-29 09:47 60.83155 -5.76817 20399 ft 183 kts 154°
2026-04-29 09:47 60.82097 -5.75370 20397 ft 183 kts 154°
2026-04-29 09:48 60.81034 -5.73921 20398 ft 183 kts 154°
2026-04-29 09:48 60.79974 -5.72476 20398 ft 183 kts 154°
2026-04-29 09:48 60.78915 -5.71030 20398 ft 183 kts 154°
2026-04-29 09:48 60.77855 -5.69586 20398 ft 183 kts 154°
2026-04-29 09:49 60.76797 -5.68145 20399 ft 183 kts 154°
2026-04-29 09:49 60.75734 -5.66699 20398 ft 183 kts 154°
2026-04-29 09:49 60.74677 -5.65262 20406 ft 183 kts 154°
2026-04-29 09:49 60.73632 -5.63844 20408 ft 183 kts 154°
2026-04-29 09:50 60.72572 -5.62406 20408 ft 183 kts 154°
2026-04-29 09:50 60.71511 -5.60969 20408 ft 183 kts 154°
2026-04-29 09:50 60.70450 -5.59531 20408 ft 183 kts 154°
2026-04-29 09:50 60.69389 -5.58094 20408 ft 183 kts 154°
2026-04-29 09:51 60.68326 -5.56657 20408 ft 183 kts 154°
2026-04-29 09:51 60.67264 -5.55222 20409 ft 183 kts 154°
2026-04-29 09:51 60.66202 -5.53786 20409 ft 183 kts 154°
2026-04-29 09:51 60.65139 -5.52353 20409 ft 183 kts 154°
2026-04-29 09:52 60.64077 -5.50921 20409 ft 183 kts 154°
2026-04-29 09:52 60.63015 -5.49490 20409 ft 183 kts 154°
2026-04-29 09:52 60.61955 -5.48065 20417 ft 183 kts 154°
2026-04-29 09:52 60.60895 -5.46639 20418 ft 183 kts 154°
2026-04-29 09:53 60.59835 -5.45213 20418 ft 183 kts 154°
2026-04-29 09:53 60.58774 -5.43790 20418 ft 183 kts 154°
2026-04-29 09:53 60.57710 -5.42361 20418 ft 183 kts 154°
2026-04-29 09:53 60.56652 -5.40942 20418 ft 183 kts 154°
2026-04-29 09:54 60.55586 -5.39512 20418 ft 183 kts 154°
2026-04-29 09:54 60.54524 -5.38091 20419 ft 183 kts 154°
2026-04-29 09:54 60.53461 -5.36670 20419 ft 183 kts 154°
2026-04-29 09:54 60.52398 -5.35250 20419 ft 183 kts 154°
2026-04-29 09:55 60.51333 -5.33828 20419 ft 183 kts 154°
2026-04-29 09:55 60.50267 -5.32406 20419 ft 183 kts 154°
2026-04-29 09:55 60.49203 -5.30988 20419 ft 183 kts 154°
2026-04-29 09:55 60.48139 -5.29569 20424 ft 183 kts 154°
2026-04-29 09:56 60.47073 -5.28151 20425 ft 183 kts 154°
2026-04-29 09:56 60.46009 -5.26737 20424 ft 183 kts 154°
2026-04-29 09:56 60.44941 -5.25319 20427 ft 183 kts 154°
2026-04-29 09:56 60.43878 -5.23906 20425 ft 183 kts 154°
2026-04-29 09:57 60.42812 -5.22491 20428 ft 183 kts 154°
2026-04-29 09:57 60.41758 -5.21093 20428 ft 183 kts 154°
2026-04-29 09:57 60.40691 -5.19679 20428 ft 183 kts 154°
2026-04-29 09:57 60.39624 -5.18268 20428 ft 183 kts 153°
2026-04-29 09:58 60.38555 -5.16855 20428 ft 184 kts 153°
2026-04-29 09:58 60.37487 -5.15444 20425 ft 184 kts 154°
2026-04-29 09:58 60.36416 -5.14030 20429 ft 184 kts 154°
2026-04-29 09:58 60.35341 -5.12611 20426 ft 184 kts 154°
2026-04-29 09:59 60.34270 -5.11199 20427 ft 184 kts 154°
2026-04-29 09:59 60.33199 -5.09788 20436 ft 184 kts 154°
2026-04-29 09:59 60.32129 -5.08379 20434 ft 184 kts 154°
2026-04-29 09:59 60.31057 -5.06968 20434 ft 184 kts 154°
2026-04-29 10:00 60.29986 -5.05562 20432 ft 184 kts 154°
2026-04-29 10:00 60.28914 -5.04155 20438 ft 184 kts 154°
2026-04-29 10:00 60.27841 -5.02748 20435 ft 184 kts 154°
2026-04-29 10:00 60.26768 -5.01341 20436 ft 184 kts 154°
2026-04-29 10:01 60.25694 -4.99934 20433 ft 184 kts 154°
2026-04-29 10:01 60.24621 -4.98530 20439 ft 184 kts 154°
2026-04-29 10:01 60.23546 -4.97121 20439 ft 184 kts 154°
2026-04-29 10:01 60.22474 -4.95720 20434 ft 184 kts 154°
2026-04-29 10:02 60.21400 -4.94319 20438 ft 184 kts 154°
2026-04-29 10:02 60.20324 -4.92916 20434 ft 184 kts 154°
2026-04-29 10:02 60.19246 -4.91511 20437 ft 185 kts 154°
2026-04-29 10:02 60.18180 -4.90123 20436 ft 185 kts 154°
2026-04-29 10:03 60.17087 -4.88699 20439 ft 185 kts 154°
2026-04-29 10:03 60.16009 -4.87297 20445 ft 184 kts 154°
2026-04-29 10:03 60.14932 -4.85897 20443 ft 184 kts 154°
2026-04-29 10:03 60.13855 -4.84498 20443 ft 184 kts 154°
2026-04-29 10:04 60.12776 -4.83099 20442 ft 185 kts 153°
2026-04-29 10:04 60.11712 -4.81719 20447 ft 185 kts 153°
2026-04-29 10:04 60.10618 -4.80302 20447 ft 185 kts 153°
2026-04-29 10:04 60.09552 -4.78922 20448 ft 185 kts 153°
2026-04-29 10:05 60.08470 -4.77523 20448 ft 185 kts 153°
2026-04-29 10:05 60.07389 -4.76125 20448 ft 185 kts 153°
2026-04-29 10:05 60.06308 -4.74728 20448 ft 185 kts 153°
2026-04-29 10:05 60.05225 -4.73332 20448 ft 185 kts 153°
2026-04-29 10:06 60.04142 -4.71935 20448 ft 185 kts 153°
2026-04-29 10:06 60.03059 -4.70539 20448 ft 185 kts 153°
2026-04-29 10:06 60.01976 -4.69146 20448 ft 185 kts 153°
2026-04-29 10:06 60.00892 -4.67752 20449 ft 185 kts 153°
2026-04-29 10:07 59.99809 -4.66360 20449 ft 185 kts 153°
2026-04-29 10:07 59.98723 -4.64966 20449 ft 186 kts 152°
2026-04-29 10:07 59.97638 -4.63572 20450 ft 185 kts 152°
2026-04-29 10:07 59.96553 -4.62181 20450 ft 185 kts 152°
2026-04-29 10:08 59.95472 -4.60796 20452 ft 185 kts 152°
2026-04-29 10:08 59.94390 -4.59410 20452 ft 185 kts 152°
2026-04-29 10:08 59.93305 -4.58024 20453 ft 185 kts 152°
2026-04-29 10:08 59.92221 -4.56639 20453 ft 185 kts 152°
2026-04-29 10:09 59.91137 -4.55253 20453 ft 185 kts 152°
2026-04-29 10:09 59.90056 -4.53872 20453 ft 185 kts 152°
2026-04-29 10:09 59.88970 -4.52489 20453 ft 185 kts 152°
2026-04-29 10:09 59.87887 -4.51108 20453 ft 185 kts 152°
2026-04-29 10:10 59.86806 -4.49730 20453 ft 185 kts 152°
2026-04-29 10:10 59.85723 -4.48353 20453 ft 185 kts 152°
2026-04-29 10:10 59.84642 -4.46979 20463 ft 184 kts 152°
2026-04-29 10:10 59.83575 -4.45624 20463 ft 185 kts 152°
2026-04-29 10:11 59.82492 -4.44250 20464 ft 185 kts 152°
2026-04-29 10:11 59.81400 -4.42865 20465 ft 187 kts 152°
2026-04-29 10:11 59.80299 -4.41471 20466 ft 188 kts 152°
2026-04-29 10:11 59.79195 -4.40071 20466 ft 189 kts 152°
2026-04-29 10:12 59.78083 -4.38665 20466 ft 190 kts 152°
2026-04-29 10:12 59.76971 -4.37258 20467 ft 190 kts 152°
2026-04-29 10:12 59.75855 -4.35849 20467 ft 191 kts 152°
2026-04-29 10:12 59.74739 -4.34441 20466 ft 190 kts 152°
2026-04-29 10:13 59.73631 -4.33043 20466 ft 188 kts 152°
2026-04-29 10:13 59.72528 -4.31653 20466 ft 188 kts 152°
2026-04-29 10:13 59.71429 -4.30270 20466 ft 187 kts 152°
2026-04-29 10:13 59.70337 -4.28891 20475 ft 186 kts 152°
2026-04-29 10:14 59.69243 -4.27504 20474 ft 187 kts 152°
2026-04-29 10:14 59.68153 -4.26113 20474 ft 186 kts 152°
2026-04-29 10:14 59.67065 -4.24718 20474 ft 187 kts 152°
2026-04-29 10:14 59.65979 -4.23316 20474 ft 186 kts 152°
2026-04-29 10:15 59.64893 -4.21911 20474 ft 187 kts 152°
2026-04-29 10:15 59.63808 -4.20499 20474 ft 187 kts 151°
2026-04-29 10:15 59.62725 -4.19083 20474 ft 187 kts 151°
2026-04-29 10:15 59.61645 -4.17665 20474 ft 187 kts 151°
2026-04-29 10:16 59.60565 -4.16241 20474 ft 187 kts 151°
2026-04-29 10:16 59.59849 -4.15294 20474 ft 187 kts 151°
2026-04-29 10:16 59.58407 -4.13377 20474 ft 187 kts 150°
2026-04-29 10:16 59.57320 -4.11991 20475 ft 184 kts 160°
2026-04-29 10:17 59.56097 -4.11502 20475 ft 178 kts 187°
2026-04-29 10:17 59.54904 -4.10966 20455 ft 186 kts 152°
2026-04-29 10:17 59.53997 -4.09106 20459 ft 190 kts 133°
2026-04-29 10:17 59.53066 -4.07296 20467 ft 187 kts 147°
2026-04-29 10:18 59.51988 -4.05902 20472 ft 185 kts 153°
2026-04-29 10:18 59.50886 -4.04590 20472 ft 185 kts 153°
2026-04-29 10:18 59.49790 -4.03249 20472 ft 186 kts 152°
2026-04-29 10:18 59.48696 -4.01891 20472 ft 186 kts 152°
2026-04-29 10:19 59.47602 -4.00535 20472 ft 186 kts 152°
2026-04-29 10:19 59.46507 -3.99182 20472 ft 186 kts 152°
2026-04-29 10:19 59.45415 -3.97831 20472 ft 186 kts 152°
2026-04-29 10:19 59.44316 -3.96475 20473 ft 186 kts 152°
2026-04-29 10:20 59.43251 -3.95028 20464 ft 188 kts 140°
2026-04-29 10:20 59.42659 -3.93726 20469 ft 189 kts 133°
2026-04-29 10:20 59.41806 -3.91761 20469 ft 189 kts 134°
2026-04-29 10:20 59.40948 -3.89803 20469 ft 189 kts 134°
2026-04-29 10:21 59.40102 -3.87873 20469 ft 189 kts 134°
2026-04-29 10:21 59.39233 -3.85891 20470 ft 189 kts 134°
2026-04-29 10:21 59.38388 -3.83968 20470 ft 189 kts 134°
2026-04-29 10:21 59.37518 -3.81991 20470 ft 189 kts 133°
2026-04-29 10:22 59.36673 -3.80072 20470 ft 189 kts 133°
2026-04-29 10:22 59.35816 -3.78125 20470 ft 189 kts 133°
2026-04-29 10:22 59.34956 -3.76175 20470 ft 189 kts 133°
2026-04-29 10:22 59.34101 -3.74234 20471 ft 188 kts 133°
2026-04-29 10:23 59.33243 -3.72292 20470 ft 188 kts 134°
2026-04-29 10:23 59.32385 -3.70348 20471 ft 188 kts 134°
2026-04-29 10:23 59.31528 -3.68411 20470 ft 188 kts 134°
2026-04-29 10:23 59.30672 -3.66475 20471 ft 188 kts 134°
2026-04-29 10:24 59.29814 -3.64539 20471 ft 188 kts 133°
2026-04-29 10:24 59.28956 -3.62606 20471 ft 188 kts 133°
2026-04-29 10:24 59.28101 -3.60678 20471 ft 188 kts 133°
2026-04-29 10:24 59.27244 -3.58748 20471 ft 188 kts 133°
2026-04-29 10:25 59.26387 -3.56820 20471 ft 187 kts 133°
2026-04-29 10:25 59.25532 -3.54898 20471 ft 188 kts 133°
2026-04-29 10:25 59.24675 -3.52972 20472 ft 188 kts 133°
2026-04-29 10:25 59.23830 -3.51074 20472 ft 187 kts 133°
2026-04-29 10:26 59.22975 -3.49156 20472 ft 187 kts 133°
2026-04-29 10:26 59.21930 -3.47745 20488 ft 183 kts 168°
2026-04-29 10:26 59.20667 -3.47404 20357 ft 188 kts 178°
2026-04-29 10:26 59.19333 -3.47225 20016 ft 195 kts 178°
2026-04-29 10:27 59.16604 -3.46754 19329 ft 198 kts 177°
2026-04-29 10:27 59.15229 -3.46500 18992 ft 199 kts 177°
2026-04-29 10:27 59.13856 -3.46251 18648 ft 198 kts 177°
2026-04-29 10:28 59.12490 -3.46003 18307 ft 197 kts 177°
2026-04-29 10:28 59.11130 -3.45757 17968 ft 196 kts 177°
2026-04-29 10:28 59.09778 -3.45513 17631 ft 195 kts 177°
2026-04-29 10:28 59.08422 -3.45269 17286 ft 195 kts 176°
2026-04-29 10:29 59.07067 -3.45026 16935 ft 195 kts 176°
2026-04-29 10:29 59.05720 -3.44686 16598 ft 195 kts 173°
2026-04-29 10:29 59.04380 -3.44308 16267 ft 194 kts 175°
2026-04-29 10:29 59.03039 -3.44053 15938 ft 193 kts 177°
2026-04-29 10:30 59.01698 -3.43838 15609 ft 193 kts 176°
2026-04-29 10:30 59.00363 -3.43616 15282 ft 192 kts 176°
2026-04-29 10:30 58.99030 -3.43382 14957 ft 192 kts 176°
2026-04-29 10:30 58.97696 -3.43147 14635 ft 193 kts 176°
2026-04-29 10:31 58.96359 -3.42912 14301 ft 194 kts 176°
2026-04-29 10:31 58.95016 -3.42677 13954 ft 194 kts 176°
2026-04-29 10:31 58.93669 -3.42442 13605 ft 194 kts 176°
2026-04-29 10:31 58.92323 -3.42207 13255 ft 194 kts 175°
2026-04-29 10:32 58.90979 -3.41973 12905 ft 193 kts 175°
2026-04-29 10:32 58.89646 -3.41742 12555 ft 192 kts 175°
2026-04-29 10:32 58.88321 -3.41512 12207 ft 190 kts 175°
2026-04-29 10:32 58.87005 -3.41283 11857 ft 190 kts 175°
2026-04-29 10:33 58.85693 -3.41055 11505 ft 189 kts 175°
2026-04-29 10:33 58.84386 -3.40827 11156 ft 188 kts 175°
2026-04-29 10:33 58.83088 -3.40603 10805 ft 186 kts 175°
2026-04-29 10:33 58.81809 -3.40380 10455 ft 183 kts 175°
2026-04-29 10:34 58.80541 -3.40164 10107 ft 182 kts 175°
2026-04-29 10:34 58.79286 -3.39957 9738 ft 181 kts 176°
2026-04-29 10:34 58.78031 -3.39757 9362 ft 181 kts 176°
2026-04-29 10:34 58.76795 -3.39566 8995 ft 180 kts 176°
2026-04-29 10:35 58.75549 -3.39381 8621 ft 179 kts 176°
2026-04-29 10:35 58.74306 -3.39200 8246 ft 179 kts 176°
2026-04-29 10:35 58.73084 -3.39029 7978 ft 173 kts 176°
2026-04-29 10:35 58.71893 -3.38866 7680 ft 171 kts 177°
2026-04-29 10:36 58.70709 -3.38709 7358 ft 170 kts 177°
2026-04-29 10:36 58.69533 -3.38557 7065 ft 168 kts 177°
2026-04-29 10:36 58.68379 -3.38411 6778 ft 164 kts 177°
2026-04-29 10:36 58.67251 -3.38271 6500 ft 161 kts 177°
2026-04-29 10:37 58.66138 -3.38137 6225 ft 160 kts 178°
2026-04-29 10:37 58.65038 -3.37933 5941 ft 159 kts 166°
2026-04-29 10:37 58.63974 -3.37412 5686 ft 157 kts 171°
2026-04-29 10:37 58.62896 -3.37130 5423 ft 156 kts 175°
2026-04-29 10:38 58.61815 -3.36931 5152 ft 156 kts 176°
2026-04-29 10:38 58.60739 -3.36748 4885 ft 155 kts 176°
2026-04-29 10:38 58.59669 -3.36565 4617 ft 154 kts 176°
2026-04-29 10:38 58.58600 -3.36382 4346 ft 154 kts 176°
2026-04-29 10:39 58.57543 -3.36205 4087 ft 151 kts 176°
2026-04-29 10:39 58.56549 -3.35733 3828 ft 147 kts 155°
2026-04-29 10:39 58.55763 -3.34519 3572 ft 146 kts 131°
2026-04-29 10:39 58.55167 -3.32972 3343 ft 143 kts 129°
2026-04-29 10:40 58.54578 -3.31462 3079 ft 139 kts 131°
2026-04-29 10:40 58.54015 -3.30024 2865 ft 136 kts 129°
2026-04-29 10:40 58.53438 -3.28552 2615 ft 135 kts 129°
2026-04-29 10:40 58.52886 -3.27136 2417 ft 132 kts 129°
2026-04-29 10:41 58.52357 -3.25763 2090 ft 119 kts 130°
2026-04-29 10:41 58.51833 -3.24473 1878 ft 121 kts 130°
2026-04-29 10:41 58.51340 -3.23261 1789 ft 109 kts 130°
2026-04-29 10:41 58.50917 -3.22193 1679 ft 91 kts 129°
2026-04-29 10:42 58.50563 -3.21222 1527 ft 89 kts 125°
2026-04-29 10:42 58.50199 -3.20262 1398 ft 88 kts 129°
2026-04-29 10:42 58.49823 -3.19364 1291 ft 86 kts 130°
2026-04-29 10:42 58.49459 -3.18433 1147 ft 88 kts 129°
2026-04-29 10:43 58.49096 -3.17482 999 ft 87 kts 127°
2026-04-29 10:43 58.48743 -3.16579 881 ft 85 kts 129°
2026-04-29 10:43 58.48384 -3.15675 774 ft 84 kts 129°
2026-04-29 10:43 58.48038 -3.14774 660 ft 86 kts 128°
2026-04-29 10:44 58.47684 -3.13875 575 ft 83 kts 128°
2026-04-29 10:44 58.47333 -3.12982 493 ft 84 kts 129°
2026-04-29 10:44 58.46972 -3.12079 393 ft 86 kts 128°
2026-04-29 10:44 58.46613 -3.11157 270 ft 87 kts 127°
2026-04-29 10:45 58.46249 -3.10237 158 ft 87 kts 128°
2026-04-29 10:45 58.45927 -3.09439 121 ft 67 kts 127°
2026-04-29 10:45 58.45653 -3.08738 126 ft 56 kts 126°
2026-04-29 10:45 58.45541 -3.08480 119 ft 7 kts 213°
2026-04-29 10:46 58.45552 -3.08526 122 ft 3 kts 321°
2026-04-29 10:46 58.45567 -3.08612 124 ft 16 kts 241°
2026-04-29 10:46 58.45525 -3.08714 124 ft 6 kts 226°
2026-04-29 10:46 58.45509 -3.08741 124 ft 0 kts 221°
2026-04-29 10:47 58.45479 -3.08786 125 ft 13 kts 210°
2026-04-29 10:47 58.45410 -3.08758 124 ft 6 kts 219°
2026-04-29 10:47 58.45407 -3.08769 124 ft 0 kts 257°
2026-04-29 10:49 58.45415 -3.08810 124 ft 0 kts 294°
2026-04-29 10:49 58.45369 -3.08789 124 ft 0 kts 112°